DMSP 5D-2 F13 DEB, 40418

Orbit data source: Space-Track

DMSP 5D-2 F13 DEB, 40418 is space debris in SSO originally from a launch on Fri, 24 Mar 1995 UTC launched from the Air Force Western Test Range (AFWTR). Debris objects in space refer to the collection of defunct objects orbiting the Earth. Examples of debris include non-operational satellites, rocket bodies, and fragments generated from explosions, collisions, or faulty payload assembly.

Loading next visibility...
Identifier
40418, 1995-015AF
Orbit
SSO
Country
Flag of USUS
Related business
Manufacturer
Unknown
Mission
Spacecraft
Bus & Motor
Unknown
Mass
Unknown
Launch date (UTC)
1995-03-24 (31 years ago)
Launch vehicle
Unknown
Launch site
Air Force Western Test Range (AFWTR)
Object type
Payload
Rocket body
Debris
Shape & HBR
Unknown shape, 0.1 m
Radar Cross Section
Small (<0.1 m²)

Expand to show TLE details & history
Last TLE update: 6 hours ago

TLE from 6 hours ago
0 DMSP 5D-2 F13 DEB
1 40418U 95015AF  26119.57058751  .00002430  00000-0  90003-3 0  9998
2 40418  98.6462 149.2151 0009728 116.0027 244.2160 14.33193493580271
Epoch: 2026-04-29T13:41Z
TLE epoch observation values (Epoch: 2026-04-29T13:41:38.760Z)
Latitude
-0.00003°
Longitude
86.27396°
Altitude
787.046 km
Speed
7.459 km/s
True Right ascension
09h 56m 51s
True Declination
0° 00' 00"
Sunlit
Object was in daylight at epoch
Visualization orbit readout
Latitude
Unknown
Longitude
Unknown
Altitude
Unknown
Speed
Unknown
Apparent Right ascension
Unknown
Apparent Declination
Unknown
Sunlit
N/A
Visualization observer readout
Local Sidereal Time
02:46:22
Azimuth
Unknown
Elevation
Unknown
Doppler factor
Unknown
Orbital elements
Apogee altitude
785.176 km
Perigee altitude
771.252 km
Semi-major axis
7,156.351 km
Eccentricity
0.00097
Inclination
98.6462°
RAAN
149.2151°
Arg. of periapsis
116.0027°
True anomaly
244.11568°
Mean anomaly
244.216°
Eccentric anomaly
244.16583°
Mean motion
3.58514 °/min
Orbital period
100.41 mins
BSTAR
0.00090003

Documentation

Showing up to 5 results
|